Location: Angwan Shehu
(11.2514°N, 7.4613°E)
Time: 16:02:31
(UTC+00:00)

Tiros 1 - Visible Passes

Search period start: 19 April 2021 00:00
Search period end: 29 April 2021 00:00
Orbit: 630 x 663 km, 48.4° (Epoch: 18 April)

Date Brightness Start Highest point End Pass type
(mag) Time Alt. Az. Time Alt. Az. Time Alt. Az.
19 Apr 9.3 17:59:49 10° WNW 18:03:32 24° SW 18:07:19 10° S visible
23 Apr 9.3 04:11:39 10° S 04:15:22 23° SE 04:19:05 10° ENE visible
24 Apr 7.3 04:36:29 10° SW 04:41:13 75° SE 04:45:54 10° NE visible
25 Apr 9.2 03:23:33 17° SSE 03:25:10 20° SE 03:28:38 10° E visible
26 Apr 7.4 03:49:07 35° SSW 03:51:00 66° SE 03:55:41 10° NE visible
27 Apr 9.9 02:36:54 14° E 02:36:54 14° E 02:38:09 10° E visible
27 Apr 7.8 04:14:36 23° W 04:16:55 38° NW 04:21:19 10° NNE visible
28 Apr 8.4 03:02:16 39° ENE 03:02:16 39° ENE 03:05:26 10° NE visible
28 Apr 9.2 04:40:45 10° WNW 04:43:02 13° NW 04:45:19 10° NNW visible
